231346 Weather Reports


time (UTC)temp
F
wind
direction
speed
knots
gust
knots
rain 1hr
in
rain 24hr
in
rain mn
in
humidity
%
barometer
mb
20260505094509 0 76 6.1 10.4 0.00 0.00 0.00 1013.6
20260505091501 0 59 4.3 9.6 0.00 0.00 0.00 1013.4
20260505090100 0 58 7.0 12.2 0.00 0.00 0.00 1013.4
20260505084553 0 65 6.1 10.4 0.00 0.00 0.00 1013.2
20260505081548 0 86 7.0 13.0 0.00 0.00 0.00 1013.2
20260505080041 0 38 6.1 12.2 0.00 0.00 0.00 1013.2
20260505074541 0 34 7.8 13.0 0.00 0.00 0.00 1013.2
20260505071530 0 25 6.1 10.4 0.00 0.00 0.00 1012.8
20260505070023 0 59 5.2 9.6 0.00 0.00 0.00 1012.6
20260505064518 0 59 5.2 10.4 0.00 0.00 0.00 1012.4
20260505061520 0 26 6.1 11.3 0.00 0.00 0.00 1012.1
20260505060007 0 80 6.1 12.2 0.00 0.00 0.00 1012.0
20260505054502 0 61 5.2 12.2 0.00 0.00 0.00 1012.0
20260505051501 0 71 6.1 12.2 0.00 0.00 0.00 1011.7
20260505041614 0 59 5.2 10.4 0.00 0.00 0.00 1011.5
20260505040058 0 38 5.2 11.3 0.00 0.00 0.00 1011.3
20260505034604 0 57 5.2 11.3 0.00 0.00 0.00 1011.1
20260505031606 0 50 6.1 11.3 0.00 0.00 0.00 1010.9
20260505030055 0 36 7.0 11.3 0.00 0.00 0.00 1010.9
20260505024551 0 61 7.8 12.2 0.00 0.00 0.00 1010.6
20260505021546 0 42 7.8 11.3 0.00 0.00 0.00 1010.3
20260505020038 0 57 6.1 9.6 0.00 0.00 0.00 1010.1
20260505014541 0 52 4.3 10.4 0.00 0.00 0.00 1010.1
20260505011534 0 49 6.1 10.4 0.00 0.00 0.00 1010.1
20260505010033 0 65 6.1 10.4 0.00 0.00 0.00 1010.2
20260505004531 0 53 7.0 10.4 0.00 0.00 0.00 1010.0
20260505001535 0 58 5.2 10.4 0.00 0.00 0.00 1009.8
20260505000038 0 33 4.3 9.6 0.00 0.00 0.00 1009.8
20260504234528 0 64 4.3 9.6 0.00 0.00 0.00 1009.8
20260504231535 0 69 7.0 10.4 0.00 0.00 0.00 1009.9
20260504230026 0 59 5.2 9.6 0.00 0.00 0.00 1010.0
20260504224527 0 61 4.3 8.7 0.00 0.00 0.00 1010.0
20260504221523 0 63 4.3 9.6 0.00 0.00 0.00 1010.4
20260504220021 0 35 7.0 10.4 0.00 0.00 0.00 1010.5
20260504214515 0 51 1.7 8.7 0.00 0.00 0.00 1010.5
20260504211513 0 55 4.3 9.6 0.00 0.00 0.00 1010.8
20260504210006 0 13 2.6 8.7 0.00 0.00 0.00 1011.0
20260504204502 0 53 4.3 9.6 0.00 0.00 0.00 1011.0
20260504203158 0 55 6.1 9.6 0.00 0.00 0.00 1011.1
20260504201555 0 58 6.1 8.7 0.00 0.00 0.00 1011.2
20260504200051 0 57 4.3 7.8 0.00 0.00 0.00 1011.2
20260504194602 0 55 4.3 8.7 0.00 0.00 0.00 1011.2
20260504193145 0 61 4.3 8.7 0.00 0.00 0.00 1011.4
20260504191546 0 49 5.2 9.6 0.00 0.00 0.00 1011.5
20260504190044 0 44 5.2 10.4 0.00 0.00 0.00 1011.7
20260504184538 0 50 3.5 7.8 0.00 0.00 0.00 1011.8
20260504183126 0 32 5.2 8.7 0.00 0.00 0.00 1011.9
20260504181523 0 46 6.1 9.6 0.00 0.00 0.00 1011.9
20260504180021 0 54 4.3 8.7 0.00 0.00 0.00 1011.8
20260504174515 0 44 6.1 9.6 0.00 0.00 0.00 1011.8
20260504173132 0 59 4.3 8.7 0.00 0.00 0.00 1011.8
20260504171507 0 53 5.2 8.7 0.00 0.00 0.00 1011.8